Regional Weather Roundup
Issued by NWS

Home | Current Version | Previous Version | Text Only | Print | Product List | Glossary On
Versions: 1 2 3 4 5 6 7 8 9 10 11 12 13 14 15 16 17 18 19 20 21 22 23 24 25 26 27 28 29 30 31 32 33 34 35 36 37 38 39 40 41 42 43 44 45 46 47 48 49 50
000
ASUS44 KMEG 300210
RWRTN
TENNESSEE HOURLY STATE WEATHER ROUNDUP
NATIONAL WEATHER SERVICE MEMPHIS TN
900 PM CDT SUN MAR 29 2015

TNZ002-004-019-021-049-052-054-088>092-300300-
WEST TENNESSEE

CITY           SKY/WX    TMP DP  RH WIND       PRES   REMARKS
MEMPHIS INTL   CLOUDY    63  51  65 CALM      30.06R
NWS MEMPHIS      N/A     61 N/A N/A MISG        N/A
JACKSON        MOCLDY    56  42  59 S3        30.08R
DYERSBURG      MOCLDY    59  41  51 SW5       30.08R
UNION CITY     CLOUDY    55  48  76 S3        30.06R
PARIS          CLOUDY    52  39  62 S3        30.08R
HUNTINGDON     CLOUDY    53  38  56 CALM      30.09R
LEXINGTON      CLEAR     55  39  54 S3        30.07F
SAVANNAH       CLEAR     55  43  62 S3        30.10R
$$

TNZ008-025-027-028-033-062-065-066-300300-
NORTH MIDDLE TENNESSEE

CITY           SKY/WX    TMP DP  RH WIND       PRES   REMARKS
NASHVILLE      PTCLDY    56  37  49 SW9G18    30.11R
CLARKSVILLE    PTCLDY    58  41  53 SW3       30.09R
SMYRNA         CLEAR     55  36  49 S8        30.11R
COOKEVILLE     CLEAR     54  32  43 S10       30.07S
CROSSVILLE     CLEAR     52  26  36 S10G22    30.10S
$$

TNZ061-075-076-078-094-096-097-300300-
SOUTH MIDDLE TENNESSEE

CITY           SKY/WX    TMP DP  RH WIND       PRES   REMARKS
FAYETTEVILLE   CLEAR     52  34  50 S10       30.13S
TULLAHOMA      CLEAR     52  30  43 S9        30.12R
WINCHESTER     CLEAR     54  34  47 S9        30.14S
MCMINNVILLE    CLEAR     54  36  50 S8        30.09S
COLUMBIA       CLEAR     55  39  54 S10       30.09R
SHELBYVILLE    CLEAR     54  36  50 S14       30.10S
$$

TNZ017-018-042-046-047-300300-
NORTHEAST TENNESSEE

CITY           SKY/WX    TMP DP  RH WIND       PRES   REMARKS
TRI CITIES     PTCLDY    42  20  41 CALM      30.12S
ELIZABETHTON   CLEAR     36  21  55 CALM      30.12F
$$

TNZ012-013-036-069-073-074-300300-
CENTRAL EAST TENNESSEE

CITY           SKY/WX    TMP DP  RH WIND       PRES   REMARKS
KNOXVILLE      CLOUDY    53  27  36 SW10      30.12S
OAK RIDGE      MOCLDY    57  24  28 SW12G22   30.13S
GATLINBURG     CLEAR     45  21  39 CALM      30.11F
MORRISTOWN     PTCLDY    48  21  34 SW6       30.12S
$$

TNZ083-085-099-300300-
SOUTHEAST TENNESSEE

CITY           SKY/WX    TMP DP  RH WIND       PRES   REMARKS
CHATTANOOGA    CLOUDY    59  29  31 S10       30.17F
$$

SKY/WX REPORTED AS FAIR MEANS FEW OR NO CLOUDS BELOW
12 THOUSAND FEET.




USA.gov is the U.S. government's official web portal to all federal, state and local government web resources and services.